EW2099 Weather Reports


time (UTC)temp
C
wind
direction
speed
KPH
gust
KPH
rain 1hr
cm
rain 24hr
cm
rain mn
cm
humidity
%
barometer
mb
20260506174508 11 352 6.4 19.3 0.00 0.00 0.00 65 1011.6
20260506173007 11 14 8.0 20.9 0.00 0.00 0.00 64 1011.5
20260506171507 12 42 8.0 19.3 0.00 0.00 0.00 64 1011.5
20260506170005 12 30 9.7 22.5 0.00 0.00 0.00 63 1011.3
20260506164517 12 335 11.3 20.9 0.00 0.00 0.00 63 1011.3
20260506163009 12 50 4.8 19.3 0.00 0.00 0.00 63 1011.3
20260506161505 12 354 9.7 19.3 0.00 0.00 0.00 62 1011.3
20260506160003 12 41 11.3 22.5 0.00 0.00 0.00 62 1011.3
20260506154502 12 55 9.7 27.4 0.00 0.00 0.00 62 1011.4
20260506153001 12 77 9.7 22.5 0.00 0.00 0.00 62 1011.3
20260506151605 12 27 11.3 22.5 0.00 0.00 0.00 60 1011.3
20260506150108 12 37 11.3 25.7 0.00 0.00 0.00 60 1011.3
20260506144600 12 31 12.9 24.1 0.00 0.00 0.00 60 1011.2
20260506143059 13 58 6.4 22.5 0.00 0.00 0.00 62 1011.1
20260506141556 12 51 6.4 24.1 0.00 0.00 0.00 62 1011.1
20260506140056 12 329 9.7 25.7 0.00 0.00 0.00 62 1011.1
20260506134555 13 21 8.0 24.1 0.00 0.00 0.00 61 1011.1
20260506133108 13 4 9.7 29.0 0.00 0.00 0.00 60 1011.1
20260506131611 13 345 6.4 22.5 0.00 0.00 0.00 62 1011.1
20260506130052 13 346 8.0 20.9 0.00 0.00 0.00 61 1011.0
20260506124552 12 23 11.3 24.1 0.00 0.00 0.00 60 1010.9
20260506123050 13 333 9.7 22.5 0.00 0.00 0.00 61 1010.8
20260506121555 12 39 16.1 25.7 0.00 0.00 0.00 61 1010.8
20260506120058 12 34 9.7 22.5 0.00 0.00 0.00 63 1010.7
20260506114545 12 66 8.0 22.5 0.00 0.00 0.00 63 1010.7
20260506113044 12 321 6.4 22.5 0.00 0.00 0.00 64 1010.7
20260506111545 12 31 9.7 24.1 0.00 0.00 0.00 64 1010.6
20260506110041 11 19 11.3 22.5 0.00 0.00 0.00 64 1010.6
20260506104548 11 30 9.7 20.9 0.00 0.00 0.00 63 1010.7
20260506103043 11 32 11.3 27.4 0.00 0.00 0.00 63 1010.7
20260506101534 11 47 8.0 17.7 0.00 0.00 0.00 64 1010.6
20260506100034 11 62 6.4 25.7 0.00 0.00 0.00 63 1010.5
20260506094534 11 32 9.7 20.9 0.00 0.00 0.00 64 1010.4
20260506093033 11 337 6.4 22.5 0.00 0.00 0.00 64 1010.4
20260506091532 11 77 9.7 20.9 0.00 0.00 0.00 63 1010.4
20260506090032 11 32 11.3 22.5 0.00 0.00 0.00 63 1010.2
20260506084607 11 43 8.0 19.3 0.00 0.00 0.00 63 1010.2
20260506083030 11 49 11.3 20.9 0.00 0.00 0.00 64 1010.1
20260506081538 11 36 6.4 25.7 0.00 0.00 0.00 63 1009.9
20260506073027 11 43 8.0 20.9 0.00 0.00 0.00 62 1009.8
20260506071526 11 65 11.3 22.5 0.00 0.00 0.00 62 1009.8
20260506061520 10 46 6.4 22.5 0.00 0.00 0.00 64 1009.6
20260506044515 10 6 9.7 20.9 0.00 0.00 0.00 64 1009.5
20260506043013 10 4 9.7 27.4 0.00 0.00 0.00 64 1009.6
20260506041512 10 353 4.8 25.7 0.00 0.00 0.00 64 1009.6
20260506040010 10 51 14.5 29.0 0.00 0.00 0.00 63 1009.6
20260506034509 10 330 9.7 29.0 0.00 0.00 0.00 63 1009.7
20260506033007 10 28 6.4 25.7 0.00 0.00 0.00 64 1009.8
20260506031505 10 18 9.7 17.7 0.00 0.00 0.00 63 1009.8
20260506030002 10 75 12.9 25.7 0.00 0.00 0.00 64 1009.9
20260506024501 10 11 11.3 25.7 0.00 0.00 0.00 64 1009.9
20260506023109 10 15 6.4 22.5 0.00 0.00 0.00 64 1009.9
20260506021617 10 30 4.8 27.4 0.00 0.00 0.00 65 1010.0
20260506020056 10 27 8.0 24.1 0.00 0.00 0.00 65 1010.0
20260506014555 10 72 9.7 29.0 0.00 0.00 0.00 64 1010.0
20260506013106 10 46 11.3 20.9 0.00 0.00 0.00 65 1010.0
20260506011612 10 63 12.9 27.4 0.00 0.00 0.00 64 1010.2
20260506010055 10 72 8.0 22.5 0.00 0.00 0.00 65 1010.2
20260506004547 10 23 9.7 20.9 0.00 0.00 0.00 65 1010.3
20260506003045 10 51 9.7 19.3 0.00 0.00 0.00 65 1010.4
20260506001546 10 32 9.7 20.9 0.00 0.00 0.00 65 1010.4
20260506000044 10 41 8.0 22.5 0.00 0.00 0.00 63 1010.5
20260505234538 10 51 8.0 27.4 0.00 0.00 0.00 63 1010.7
20260505233037 10 39 6.4 16.1 0.00 0.00 0.00 63 1010.7
20260505231547 10 48 8.0 17.7 0.00 0.00 0.00 63 1010.6
20260505230031 10 45 6.4 19.3 0.00 0.00 0.00 66 1010.7
20260505224530 10 84 9.7 20.9 0.00 0.00 0.00 66 1010.8
20260505223028 10 42 9.7 22.5 0.00 0.00 0.00 66 1010.9
20260505221529 10 51 11.3 19.3 0.00 0.00 0.00 66 1010.8
20260505220024 10 360 6.4 22.5 0.00 0.00 0.00 65 1010.9
20260505214524 10 6 9.7 27.4 0.00 0.00 0.00 66 1010.9
20260505213033 10 41 6.4 24.1 0.00 0.00 0.00 66 1010.9
20260505211521 10 63 9.7 20.9 0.00 0.00 0.00 66 1010.9
20260505210020 10 35 11.3 24.1 0.00 0.00 0.00 66 1011.0
20260505204518 10 49 8.0 29.0 0.00 0.00 0.00 66 1010.8
20260505203027 10 57 9.7 20.9 0.00 0.00 0.00 66 1010.8
20260505201527 11 33 11.3 29.0 0.00 0.00 0.00 66 1010.7
20260505200014 11 32 9.7 27.4 0.00 0.00 0.00 66 1010.7
20260505194512 11 57 9.7 22.5 0.00 0.00 0.00 65 1010.6
20260505193011 11 73 12.9 29.0 0.00 0.00 0.00 65 1010.5
20260505191513 11 79 11.3 22.5 0.00 0.00 0.00 66 1010.6
20260505190012 11 27 12.9 29.0 0.00 0.00 0.00 65 1010.6
20260505184508 11 40 12.9 24.1 0.00 0.00 0.00 65 1010.4
20260505183012 11 4 14.5 29.0 0.00 0.00 0.00 64 1010.3
20260505181503 11 23 11.3 25.7 0.00 0.00 0.00 64 1010.3
20260505180002 11 4 12.9 27.4 0.00 0.00 0.00 64 1010.2